Fort Knox, KY

10:29 PM EDT on April 29, 2017 (GMT -0400)
Godman Army Air Field

Weather History for KFTK - September, 2013

Change the Weather History Date:

Monday, September 9, 2013

  Actual Average Record
Temperature  
Mean Temperature 78 °F -  
Max Temperature 91 °F 80 °F 96 °F (2002)
Min Temperature 67 °F 58 °F 50 °F (1998)
Cooling Degree Days 14    
Growing Degree Days 28 (Base 50)    
Moisture  
Dew Point 70 °F    
Average Humidity 76    
Maximum Humidity 99    
Minimum Humidity 48    
Precipitation  
Precipitation 0.00 in - - ()
Sea Level Pressure  
Sea Level Pressure 30.01 in    
Wind  
Wind Speed 2 mph (South)    
Max Wind Speed 9 mph    
Max Gust Speed -    
Visibility 10 miles    
Events      
Averages and records for this station are not official NWS values.
T = Trace of Precipitation, MM = Missing Value Source: NWS Daily Summary

Daily Weather History Graph

Daily Weather History Graph

Search for Another Location

Airport or City:

Trip Planner

Search our weather history database for the weather conditions in past years. The results will help you decide how hot, cold, wet, or windy it might be!

Date:

Astronomy

Sep. 09, 2013 Rise Set
Actual Time 7:20 AM EDT 8:00 PM EDT
Civil Twilight 6:54 AM EDT 8:27 PM EDT
Nautical Twilight 6:22 AM EDT 8:58 PM EDT
Astronomical Twilight 5:50 AM EDT 9:30 PM EDT
Moon 11:36 AM EDT (9/9) 10:22 PM EDT (9/9)
Length of Visible Light 13h 32m
Length of Day
12h 39m
Waxing Crescent, 19% of the Moon is Illuminated
Sep 9
Waxing Crescent
Sep 12
First Quarter
Sep 19
Full
Sep 26
Last Quarter
Oct 4
New

Hourly Weather History & Observations

Time (EDT) Temp. Heat Index Dew Point Humidity Pressure Visibility Wind Dir Wind Speed Gust Speed Precip Events Conditions
12:58 AM 68.0 °F - 67.5 °F 98% 29.99 in 9.0 mi Calm Calm - N/A   Partly Cloudy
1:58 AM 70.5 °F - 68.5 °F 93% 29.99 in 10.0 mi Calm Calm - N/A   Mostly Cloudy
2:58 AM 69.6 °F - 68.9 °F 98% 29.99 in 10.0 mi Calm Calm - N/A   Overcast
3:58 AM 68.5 °F - 67.6 °F 97% 29.99 in 10.0 mi Calm Calm - N/A   Clear
4:58 AM 67.6 °F - 66.0 °F 95% 30.00 in 10.0 mi Calm Calm - N/A   Partly Cloudy
5:58 AM 67.5 °F - 67.1 °F 99% 30.00 in 9.0 mi Calm Calm - N/A   Overcast
6:58 AM 68.2 °F - 68.0 °F 99% 30.01 in 10.0 mi Calm Calm - N/A   Overcast
7:58 AM 69.1 °F - 68.0 °F 96% 30.01 in 10.0 mi Calm Calm - N/A   Scattered Clouds
8:58 AM 72.9 °F - 70.2 °F 91% 30.02 in 10.0 mi Calm Calm - N/A   Partly Cloudy
9:58 AM 78.6 °F - 71.6 °F 79% 30.02 in 10.0 mi South 8.1 mph - N/A   Scattered Clouds
10:58 AM 83.7 °F 88.0 °F 70.3 °F 64% 30.03 in 10.0 mi SSW 8.1 mph - N/A   Scattered Clouds
11:58 AM 86.7 °F 91.4 °F 70.0 °F 57% 30.04 in 10.0 mi SSW 5.8 mph - N/A   Scattered Clouds
12:58 PM 88.9 °F 94.2 °F 70.5 °F 54% 30.03 in 10.0 mi South 5.8 mph - N/A   Scattered Clouds
1:58 PM 90.0 °F 94.1 °F 68.5 °F 49% 30.02 in 10.0 mi SW 8.1 mph - N/A   Scattered Clouds
2:58 PM 90.9 °F 95.3 °F 68.9 °F 48% 30.01 in 10.0 mi South 3.5 mph - N/A   Clear
3:58 PM 90.5 °F 95.5 °F 69.8 °F 50% 29.99 in 10.0 mi South 8.1 mph - N/A   Partly Cloudy
4:58 PM 90.7 °F 95.9 °F 70.0 °F 50% 29.98 in 10.0 mi SSW 9.2 mph - N/A   Scattered Clouds
5:58 PM 89.4 °F 94.8 °F 70.3 °F 53% 29.98 in 10.0 mi South 5.8 mph - N/A   Scattered Clouds
6:58 PM 86.9 °F 92.9 °F 71.4 °F 60% 29.98 in 10.0 mi South 5.8 mph - N/A   Partly Cloudy
7:58 PM 82.8 °F 87.7 °F 71.8 °F 69% 30.00 in 10.0 mi South 3.5 mph - N/A   Clear
8:58 PM 77.9 °F - 71.6 °F 81% 30.01 in 10.0 mi Calm Calm - N/A   Clear
9:58 PM 76.8 °F - 71.4 °F 83% 30.02 in 10.0 mi South 2.3 mph - N/A   Clear
10:58 PM 75.9 °F - 71.1 °F 85% 30.03 in 10.0 mi Calm Calm - N/A   Clear
11:58 PM 75.2 °F - 70.9 °F 86% 30.04 in 10.0 mi SSW 3.5 mph - N/A   Clear